{"data":{"norad_id":62672,"intl_designator":"2025-009BR","name":"TRANSPORTER-12 OBJECT BR","alt_names":[],"object_type":"PAYLOAD","status":"ACTIVE","operator":null,"country":"TBD","launch_date":"2025-01-14","launch_site_code":"AFWTR","launch_vehicle":null,"mission":null,"orbit_class":"UNKNOWN","rcs_meters":null,"size_class":null,"mass_kg":null,"dimensions":null,"purposes":[],"wikipedia_slug":null,"has_3d_model":false,"image_url":null,"decayed_at":null,"tle_current":{"epoch":"2026-09-22T17:06:56.504736Z","epoch_age_seconds":128373,"freshness":"FRESH","line1":"1 62672U 25009BR  26265.71315399  .00002727  00000+0  11695-3 0  9990","line2":"2 62672  97.3890 343.3357 0004564  12.5500 347.5850 15.23580650151230","mean_motion":15.2358065,"eccentricity":0.0004564,"inclination_deg":97.389,"raan_deg":343.3357,"arg_perigee_deg":12.55,"mean_anomaly_deg":347.585,"bstar":0.00011695,"rev_number":15123,"period_min":94.514195884543,"perigee_km":491.91385423093,"apogee_km":498.1877000339,"semimajor_km":6873.1877771324,"source":"CELESTRAK","updated_at":"2026-09-23T09:00:21.545894Z"}}}